Abbotsford, British Columbia

3:24 PM PST on February 08, 2016 (GMT -0800)
Abbotsford

Weather History for 71108 - November, 2012

Change the Weather History Date:

Wednesday, November 7, 2012

  Actual Average Record
Temperature  
Mean Temperature 46 °F -  
Max Temperature 52 °F 47 °F - ()
Min Temperature 39 °F 35 °F - ()
Degree Days  
Heating Degree Days 20    
Moisture  
Dew Point 39 °F    
Average Humidity 80    
Maximum Humidity 93    
Minimum Humidity 62    
Precipitation  
Precipitation 0.00 in 0.29 in - ()
Sea Level Pressure  
Sea Level Pressure 30.07 in    
Wind  
Wind Speed 7 mph ()    
Max Wind Speed 13 mph    
Max Gust Speed -    
Visibility 15.7 miles    
Events      
T = Trace of Precipitation, MM = Missing Value Source: Averaged Metar Reports

Daily Weather History Graph

Daily Weather History Graph

Search for Another Location

Airport or City:

Trip Planner

Search our weather history database for the weather conditions in past years. The results will help you decide how hot, cold, wet, or windy it might be!

Date:

Astronomy

Nov. 07, 2012 Rise Set
Actual Time 7:07 AM PST 4:38 PM PST
Civil Twilight 6:33 AM PST 5:12 PM PST
Nautical Twilight 5:55 AM PST 5:50 PM PST
Astronomical Twilight 5:18 AM PST 6:27 PM PST
Moon No Moon Rise 1:21 PM PST (11/7)
Length of Visible Light 10h 38m
Length of Day
9h 30m
Last Quarter, 42% of the Moon is Illuminated
Nov 7
Last Quarter
Nov 13
New
Nov 20
First Quarter
Nov 28
Full
Dec 6
Last Quarter

Hourly Weather History & Observations

Time (PST) Temp. Windchill Dew Point Humidity Pressure Visibility Wind Dir Wind Speed Gust Speed Precip Events Conditions
12:00 AM 48.2 °F - 42.8 °F 82% 29.99 in 15.0 mi South 6.9 mph - N/A   Partly Cloudy
1:00 AM 44.6 °F 39.7 °F 41.0 °F 87% 30.00 in 15.0 mi SSE 9.2 mph - N/A   Partly Cloudy
2:00 AM 44.6 °F 39.7 °F 41.0 °F 87% 30.02 in 15.0 mi SSW 9.2 mph - N/A   Scattered Clouds
3:00 AM 44.6 °F 39.7 °F 39.2 °F 81% 30.04 in 15.0 mi South 9.2 mph - N/A   Partly Cloudy
4:00 AM 43 °F - 39 °F 81% 30.06 in 15 mi SSE 6.9 mph - -   Mostly Cloudy
4:00 AM 42.8 °F 38.6 °F 39.2 °F 87% 30.05 in 15.0 mi SSE 6.9 mph - N/A   Mostly Cloudy
5:00 AM 42.8 °F 38.6 °F 37.4 °F 81% 30.07 in 15.0 mi SW 6.9 mph - N/A   Scattered Clouds
6:00 AM 41.0 °F 35.8 °F 37.4 °F 87% 30.08 in 15.0 mi SSW 8.1 mph - N/A   Scattered Clouds
7:00 AM 39.2 °F 35.9 °F 35.6 °F 87% 30.09 in 25.0 mi SW 4.6 mph - N/A   Partly Cloudy
8:00 AM 41.0 °F - 37.4 °F 87% 30.11 in 15.0 mi SW 2.3 mph - N/A   Scattered Clouds
9:00 AM 44.6 °F 40.7 °F 41.0 °F 87% 30.12 in 20.0 mi South 6.9 mph - N/A   Mostly Cloudy
10:00 AM 49 °F - 42 °F 69% 30.13 in 25 mi South 12.7 mph - -   Partly Cloudy
10:00 AM 50.0 °F - 42.8 °F 76% 30.12 in 25.0 mi South 10.4 mph - N/A   Mostly Cloudy
11:00 AM 50.0 °F - 41.0 °F 71% 30.12 in 25.0 mi SW 10.4 mph - N/A   Mostly Cloudy
12:00 PM 50.0 °F - 37.4 °F 62% 30.11 in 25.0 mi South 10.4 mph - N/A   Scattered Clouds
1:00 PM 51.8 °F - 39.2 °F 62% 30.10 in 25.0 mi South 10.4 mph - N/A   Mostly Cloudy
2:00 PM 51.8 °F - 39.2 °F 62% 30.10 in 25.0 mi SSW 10.4 mph - N/A   Mostly Cloudy
3:00 PM 50.0 °F - 41.0 °F 71% 30.09 in 25.0 mi SW 10.4 mph - N/A   Mostly Cloudy
4:00 PM 47 °F - 38 °F 62% 30.09 in 19 mi SSW 5.8 mph - -   Partly Cloudy
4:00 PM 48.2 °F - 37.4 °F 66% 30.09 in 20.0 mi South 5.8 mph - N/A   Mostly Cloudy
5:00 PM 44.6 °F 43.1 °F 37.4 °F 76% 30.08 in 30.0 mi ESE 3.5 mph - N/A   Scattered Clouds
6:00 PM 41.0 °F 38.0 °F 37.4 °F 87% 30.08 in 15.0 mi NNE 4.6 mph - N/A   Scattered Clouds
7:00 PM 41.0 °F 36.4 °F 37.4 °F 87% 30.07 in 15.0 mi NNE 6.9 mph - N/A   Scattered Clouds
8:00 PM 41.0 °F 35.2 °F 39.2 °F 93% 30.06 in 15.0 mi NE 9.2 mph - N/A   Scattered Clouds
9:00 PM 41.0 °F 35.2 °F 39.2 °F 93% 30.05 in 15.0 mi NNE 9.2 mph - N/A   Scattered Clouds
10:00 PM 40 °F - 38 °F 88% 30.04 in 15 mi NNE 6.9 mph - -   Mostly Cloudy
10:00 PM 41.0 °F 35.8 °F 37.4 °F 87% 30.03 in 15.0 mi NE 8.1 mph - N/A   Mostly Cloudy
11:00 PM 39.2 °F 35.0 °F 35.6 °F 87% 30.01 in 15.0 mi NE 5.8 mph - N/A   Scattered Clouds